x

South Brooks (46132) Wave Buoy

5:00 - Thu 3rd Sep 2015 All times are PDT. -7 hours from GMT.

  • Sig Wave height 4.9ft
  • Peak Period 8s
  • Wind
    11mph, 13mph gusts
  • Sea Temp 61°f
  • Air Temp 57°f
  • Sea Pressure 1015.4mb
  • South Brooks
  • South Brooks

More Historic Weather Station data

Upgrade to MSW Pro to gain access to the past 30 days of data for over 8000 Wavebouys and Weather Stations around the globe.

Join Pro

Comparision Forecast

View Surf forecast
   
jeu. 09/03 5:00 5ft 8s 11 13 mph 1015.4mb 61f 57f
4:00 5ft 10s 9 11 mph 1015.4mb 62f 57f
3:00 5ft 8s 4 7 mph 1015.5mb 62f 58f
2:00 5.5ft 10s 2 4 mph 1015.5mb 61f 58f
1:00 5ft 10s 2 4 mph 1015.5mb 61f 58f
12:00 5.5ft 9s  -  2 mph 1015.5mb 61f 58f
11:00 6ft 10s  -  2 mph 1015.4mb 60f 58f
10:00 6ft 10s 2 4 mph 1015.1mb 60f 58f
9:00 6ft 10s  -  4 mph 1014.8mb 59f 58f
8:00 6ft 10s 2 4 mph 1014.8mb 59f 57f
7:00 7ft 10s 2 4 mph 1014.3mb 59f 56f
6:00 7ft 9s 9 13 mph 1014.2mb 59f 56f
5:00 7ft 10s 13 16 mph 1013.7mb 59f 55f
4:00 7.5ft 10s 16 18 mph 1013.4mb 60f 57f
3:00 8ft 11s 13 18 mph 1013.3mb 60f 57f
2:00 8ft 10s 16 18 mph 1013.3mb 60f 57f
1:00 8.5ft 11s 13 16 mph 1013.3mb 60f 58f
12:00 8ft 11s 11 13 mph 1013.3mb 59f 57f
mer. 09/02 11:00 9ft 10s 9 11 mph 1013.5mb 59f 57f
10:00 8.5ft 10s 7 9 mph 1013.4mb 60f 56f
9:00 8.5ft 11s 11 16 mph 1013.5mb 60f 57f
8:00 8.5ft 11s 9 11 mph 1013mb 60f 56f
7:00 9ft 11s 9 11 mph 1012.4mb 60f 58f
6:00 8.5ft 10s 11 16 mph 1011.9mb 60f 57f
5:00 9ft 11s 11 16 mph 1011.8mb 60f 58f
4:00 9.5ft 10s 7 9 mph 1011.6mb 60f 58f
3:00 10ft 11s 13 22 mph 1011.4mb 60f 57f
2:00 11ft 10s 9 13 mph 1010.8mb 60f 58f
1:00 11ft 12s 11 16 mph 1010.5mb 60f 57f
12:00 10ft 12s 11 13 mph 1010mb 59f 57f
11:00 10.5ft 11s 13 16 mph 1009.3mb 59f 57f
10:00 10ft 12s 7 9 mph 1008.7mb 59f 56f
9:00 10ft 11s 7 9 mph 1007.7mb 59f 55f
8:00 10ft 12s 9 13 mph 1007.1mb 59f 58f
7:00 10.5ft 11s 11 13 mph 1006.6mb 59f 58f
6:00 11ft 12s 4 7 mph 1006.3mb 59f 56f
5:00 10.5ft 12s 4 7 mph 1005.9mb 59f 56f
4:00 10.5ft 13s 9 13 mph 1005.4mb 59f 56f
3:00 11.5ft 12s 9 13 mph 1005mb 59f 56f
2:00 11ft 11s 18 31 mph 1004.9mb 59f 56f
1:00 11ft 11s 18 22 mph 1004.7mb 59f 59f
12:00 11ft 11s 18 22 mph 1004.9mb 59f 59f
mar. 09/01 11:00 10.5ft 11s 20 25 mph 1004.6mb 59f 58f
10:00 11ft 11s 9 13 mph 1005.5mb 59f 57f
9:00 11.5ft 11s 7 9 mph 1005.4mb 59f 56f
8:00 11.5ft 11s 16 22 mph 1004.9mb 60f 59f
7:00 12.5ft 12s 11 16 mph 1005.1mb 60f 58f
6:00 10ft 12s 18 20 mph 1004.7mb 60f 59f
5:00 10ft 10s 7 9 mph 1004.8mb 60f 57f
4:00 11ft 12s 9 13 mph 1005.2mb 60f 55f
3:00 10ft 12s 7 9 mph 1005mb 60f 56f
2:00 10ft 12s 13 18 mph 1005mb 60f 56f
1:00 10.5ft 11s 16 20 mph 1004.8mb 60f 56f
12:00 10ft 12s 16 22 mph 1004.9mb 60f 60f
11:00 9ft 12s 18 25 mph 1004.9mb 60f 59f
10:00 10ft 12s 20 25 mph 1005.1mb 59f 58f
9:00 10ft 12s 13 18 mph 1006mb 59f 58f
8:00 10ft 12s 20 27 mph 1006.6mb 59f 55f
7:00 10ft 12s 13 16 mph 1006.5mb 59f 60f
6:00 10.5ft 12s 11 13 mph 1007.1mb 59f 60f
5:00 10.5ft 12s 11 18 mph 1007.6mb 59f 60f
4:00 11ft 12s 13 18 mph 1007.9mb 59f 59f
3:00 11ft 11s 11 16 mph 1007.9mb 59f 60f
2:00 10ft 12s 13 16 mph 1008mb 60f 60f
1:00 10.5ft 11s 2 4 mph 1008.2mb 60f 59f
12:00 10ft 12s 9 11 mph 1008.3mb 60f 58f
lun. 08/31 11:00 11ft 11s 9 13 mph 1008.5mb 60f 59f
10:00 10ft 11s 9 13 mph 1008.3mb 60f 60f
9:00 11ft 11s 13 18 mph 1008.2mb 60f 60f
8:00 10ft 12s 13 18 mph 1007.5mb 60f 61f
7:00 9ft 11s 11 16 mph 1007.4mb 60f 61f
6:00 10ft 11s 11 16 mph 1007.3mb 60f 62f
5:00 10ft 12s 11 13 mph 1007mb 61f 61f
3:00 10ft 10s 9 11 mph 1007.3mb 61f 59f
2:00 10ft 11s 9 11 mph 1007.6mb 61f 59f
1:00 10ft 9s 9 11 mph 1008mb 60f 59f
12:00 11.5ft 10s 11 16 mph 1008.1mb 60f 59f
11:00 12ft 10s 9 11 mph 1008.2mb 60f 59f
10:00 11.5ft 10s 11 13 mph 1008.5mb 60f 58f
9:00 11.5ft 10s 9 13 mph 1008.8mb 60f 58f
8:00 12ft 10s 4 9 mph 1008.8mb 60f 59f
7:00 11ft 9s 4 7 mph 1008.4mb 60f 58f
6:00 10.5ft 9s 4 7 mph 1008.1mb 60f 57f
5:00 11ft 9s 9
mph
1007.7mb 60f 60f
4:00 10ft 9s 4 7 mph 1007.6mb 59f 59f
3:00 9ft 10s 9 11 mph 1007.6mb 59f 59f
2:00 9.5ft 10s 7 9 mph 1007.4mb 59f 59f